Wind_Speed
17 17 14 14 16 15 15 15 15 15 15 15 15 15 15 13 11 10 8 6 7 8 9 9 7 7 5 4 3 2 0 1 1 1 2 3 3 2 2 2 4 4 2
18 18 15 13 13 12 12 13 13 13 14 15 16 16 15 14 13 10 9 7 6 6 7 7 6 6 5 4 3 2 1 1 2 3 3 5 6 7 6 5 5 6 5
18 18 15 14 12 11 11 11 11 10 10 11 13 13 13 14 13 11 8 7 6 5 5 5 5 5 5 4 3 2 1 0 2 3 4 6 8 8 6 4 3 4 8
16 16 15 14 13 11 10 9 9 8 8 8 9 10 10 10 10 10 8 6 4 3 3 3 3 3 3 3 3 2 2 1 2 3 5 8 9 9 7 5 5 5 6
14 14 13 12 12 11 10 8 8 8 9 9 8 7 7 8 8 8 8 6 4 2 1 1 1 2 3 3 3 3 4 3 2 3 5 7 9 9 8 7 8 8 7
11 11 11 11 11 10 9 8 8 8 9 9 9 9 8 8 7 7 6 5 4 1 1 1 1 2 4 5 6 7 6 6 6 5 6 7 8 9 10 10 10 9 10
5 6 6 7 8 8 8 7 6 6 5 6 7 7 6 6 5 3 2 2 1 0 2 4 4 3 4 6 7 8 9 8 8 8 8 8 9 10 12 13 13 12 12
3 2 1 2 3 4 5 5 5 5 3 2 2 2 2 1 1 0 1 2 3 4 4 6 6 6 5 7 8 8 9 9 10 10 10 9 10 11 13 15 15 14 13
5 3 4 4 4 5 5 4 6 5 4 4 4 4 3 3 4 4 5 5 6 6 7 8 7 6 7 8 9 10 10 11 11 10 10 9 10 12 13 13 14 15 15
4 5 6 5 5 5 4 5 7 7 6 7 8 8 8 8 8 7 8 8 8 8 9 10 7 6 6 8 9 10 11 12 12 12 11 11 10 11 13 14 15 16 15
7 9 8 6 7 7 7 7 8 10 9 10 11 11 13 14 13 11 10 10 9 9 9 9 8 7 7 7 8 9 11 13 13 13 14 13 13 13 13 13 15 17 19
11 12 12 12 12 12 13 14 13 12 13 14 15 14 15 16 16 14 12 11 10 9 10 9 9 10 8 9 8 8 10 11 13 15 16 16 16 17 17 16 16 17 20
16 16 18 17 18 18 19 21 20 18 17 17 18 17 17 16 14 14 13 13 11 10 11 13 12 11 11 11 10 9 9 11 13 15 17 18 19 19 20 20 20 20 21
21 21 22 25 26 24 24 25 22 20 17 16 15 15 17 15 13 13 14 14 12 11 12 15 14 14 13 12 10 9 8 10 12 14 16 19 21 22 22 23 23 23 23
24 25 26 28 28 29 29 27 24 22 18 16 15 13 14 13 12 13 14 15 14 13 13 14 15 15 14 12 12 12 12 11 13 15 18 19 21 23 24 24 23 23 25
25 25 25 27 29 32 33 30 28 25 21 20 15 12 12 13 15 18 20 19 18 15 14 14 16 15 14 15 15 15 15 16 18 18 18 20 22 22 22 23 22 23 24
27 28 29 31 31 32 34 33 34 33 29 25 21 17 16 18 19 20 22 21 20 17 15 16 17 16 16 17 16 16 16 18 20 19 19 20 22 22 21 20 21 22 22
30 31 33 34 36 37 37 38 39 40 37 33 27 23 22 23 23 23 22 21 20 19 19 20 19 19 18 19 18 17 19 21 21 20 20 20 21 23 22 21 20 22 23
32 35 36 37 39 40 41 41 43 42 40 39 35 31 30 30 30 28 24 21 22 22 23 24 23 22 21 20 21 21 22 22 20 20 21 20 22 23 22 22 22 21 23
36 37 38 40 42 45 46 46 45 44 42 43 43 41 38 35 35 33 27 23 23 24 26 26 25 24 25 23 22 22 24 22 19 20 20 21 23 23 23 22 23 23 24
39 39 38 40 44 48 51 51 51 53 50 43 39 42 36 37 34 35 32 26 25 26 27 27 25 24 27 26 24 24 25 23 21 20 22 21 21 21 22 22 24 25 26
41 40 40 40 44 49 52 52 54 60 55 48 45 37 36 37 33 37 39 34 33 30 28 27 26 28 27 28 25 24 25 24 23 22 23 23 23 22 22 25 27 29 31
39 42 45 46 47 50 53 54 54 54 53 50 41 33 32 37 36 41 44 42 36 29 27 28 27 29 28 26 24 24 26 27 26 25 22 24 26 24 24 26 29 30 32
43 46 49 50 50 52 54 55 53 51 52 52 47 42 40 42 46 46 47 43 38 33 30 28 30 34 33 31 28 28 28 29 30 29 27 25 26 26 24 26 29 31 31
42 45 49 51 52 53 52 52 51 49 49 50 49 46 43 36 38 45 49 42 41 43 38 32 33 39 39 35 32 32 31 31 31 29 28 27 26 26 25 27 31 31 30
43 46 49 51 51 51 51 50 49 47 44 44 43 44 41 37 35 46 53 49 50 46 41 37 33 36 36 36 34 33 34 32 32 30 29 30 29 28 28 28 29 30 28
Wind_Direction
89 89 86 87 93 95 95 94 90 90 91 92 92 88 89 93 98 101 92 78 69 70 70 73 77 86 94 112 122 115 43 324 320 310 309 303 309 316 324 316 302 309 34
81 84 83 78 81 86 88 91 94 94 93 91 86 82 84 88 94 99 99 92 77 67 66 66 70 77 83 81 79 84 32 315 272 256 270 285 290 298 298 284 274 253 239
73 77 81 81 80 82 87 91 96 94 87 84 84 86 87 86 90 97 102 99 89 78 72 63 52 49 62 67 62 52 40 286 264 248 276 290 293 299 301 281 270 246 242
70 73 76 80 80 80 83 92 99 101 100 98 95 93 89 86 86 88 94 102 112 103 84 72 58 29 32 40 37 17 358 353 311 290 295 299 301 304 303 285 274 280 271
72 70 71 76 79 78 76 75 82 89 93 99 101 98 91 86 81 82 86 94 96 101 118 94 65 356 332 341 343 339 331 320 318 304 299 306 310 310 310 300 286 287 290
82 67 60 66 70 73 72 67 64 71 79 84 86 84 80 83 89 88 92 97 95 90 252 267 244 274 296 307 316 314 314 318 312 306 307 313 317 311 309 305 302 296 291
83 56 48 58 56 54 55 54 46 43 57 70 70 74 80 88 92 100 101 87 86 30 271 257 251 251 280 292 300 307 310 310 311 308 310 314 317 317 313 306 299 296 292
131 91 36 352 344 355 10 18 10 1 357 9 37 48 62 82 98 268 294 332 330 334 309 277 263 262 270 285 289 293 301 306 308 308 311 315 313 312 315 316 306 297 294
167 219 265 270 279 289 304 334 342 339 315 287 274 265 252 234 245 268 282 295 301 311 315 304 274 272 279 288 299 300 304 310 310 308 308 312 315 313 314 317 317 306 288
182 237 249 258 265 270 289 314 321 323 315 300 290 280 267 258 259 268 275 282 289 298 310 318 301 287 286 293 299 301 302 305 309 304 302 300 302 304 308 310 312 311 298
225 238 238 246 265 269 278 298 308 313 310 306 298 294 284 274 269 270 273 275 278 287 297 308 310 289 287 292 294 295 297 298 300 304 303 300 297 299 305 306 308 310 305
233 240 241 245 253 264 270 278 291 302 306 309 306 303 297 285 276 274 273 266 263 272 280 285 293 288 292 297 296 297 304 306 304 305 305 302 294 291 293 297 299 303 305
241 250 253 258 262 270 275 276 279 287 292 294 296 301 303 295 286 278 273 264 257 265 278 281 284 291 291 287 288 295 301 304 305 306 305 302 295 288 288 289 292 296 299
247 256 259 263 273 280 280 275 277 281 282 293 293 290 289 284 279 277 274 266 262 264 274 282 284 288 286 279 274 277 280 287 299 309 312 307 300 296 294 295 291 293 299
253 259 261 261 270 277 276 270 273 276 280 292 291 286 276 275 276 273 275 271 263 260 270 280 285 286 279 268 267 268 267 276 293 301 310 310 304 300 299 300 293 294 299
260 266 267 268 274 274 272 269 270 273 279 286 289 277 274 277 275 274 274 277 279 276 272 276 283 282 274 270 271 265 266 280 290 292 298 305 307 305 300 299 297 297 300
259 261 265 268 271 271 269 269 271 272 271 275 276 261 260 271 274 273 271 268 273 274 275 278 279 279 275 273 271 270 278 287 291 292 294 299 304 305 300 295 295 296 298
257 261 266 267 269 272 272 268 267 269 270 271 266 252 253 262 265 263 264 261 263 269 277 280 279 278 274 274 276 279 284 289 294 294 295 296 302 306 304 298 294 293 294
260 263 266 268 269 269 271 270 267 266 270 272 265 253 253 252 253 256 261 261 262 268 274 276 279 279 273 271 276 283 287 290 292 294 294 293 297 300 302 300 295 291 291
260 261 267 269 269 267 265 267 268 267 268 271 266 256 255 253 248 248 252 260 266 270 270 273 279 280 276 272 275 279 282 285 288 291 293 293 296 297 298 298 297 295 293
266 264 266 268 267 266 266 267 268 272 273 273 262 260 262 265 258 252 250 249 256 264 270 273 273 275 279 278 277 281 282 283 284 290 292 292 293 294 293 294 296 296 296
266 268 268 267 266 266 268 271 273 278 281 278 277 258 257 259 257 257 258 254 256 263 269 271 271 273 275 280 281 283 283 281 283 288 290 290 290 291 290 293 297 299 298
261 263 265 267 269 269 270 272 273 277 280 282 280 277 270 256 262 259 261 263 261 261 269 273 270 275 276 275 278 279 280 285 288 289 288 285 283 286 289 292 296 296 295
260 263 266 267 269 271 272 274 274 274 278 283 282 280 278 275 276 252 251 263 260 260 268 271 271 272 273 274 274 274 277 284 288 293 293 289 284 282 284 287 294 297 295
264 265 267 270 272 275 277 280 280 279 281 284 283 283 286 278 267 245 241 255 259 260 263 266 271 267 267 270 272 275 276 279 283 289 292 289 285 284 283 287 295 300 296
266 266 267 270 273 275 277 278 282 282 281 279 277 275 280 273 264 250 244 249 254 260 262 265 270 268 263 264 268 273 278 280 283 285 286 283 281 282 282 285 292 297 293
Height
5928 5927 5928 5927 5926 5925 5925 5924 5924 5924 5924 5923 5921 5921 5919 5919 5919 5919 5919 5920 5919 5918 5916 5914 5912 5911 5910 5910 5910 5910 5910 5910 5909 5909 5909 5908 5908 5907 5906 5905 5905 5905 5905
5931 5930 5931 5931 5930 5929 5929 5928 5927 5926 5925 5925 5923 5923 5922 5922 5922 5922 5921 5920 5919 5918 5917 5916 5914 5912 5911 5911 5910 5910 5910 5910 5909 5909 5909 5908 5908 5907 5906 5904 5903 5903 5904
5934 5933 5933 5933 5933 5932 5932 5931 5930 5929 5928 5928 5926 5925 5923 5923 5923 5923 5922 5921 5920 5919 5918 5917 5917 5915 5913 5912 5911 5910 5909 5909 5909 5909 5909 5909 5908 5907 5906 5904 5903 5902 5903
5935 5935 5935 5934 5935 5934 5934 5933 5932 5931 5930 5929 5928 5926 5925 5925 5924 5924 5923 5922 5920 5919 5918 5918 5917 5916 5914 5913 5913 5912 5911 5909 5909 5909 5909 5909 5908 5907 5906 5905 5904 5902 5902
5936 5936 5937 5936 5935 5935 5934 5934 5933 5932 5931 5929 5928 5928 5927 5927 5926 5924 5923 5922 5921 5920 5918 5918 5917 5916 5916 5915 5914 5913 5912 5911 5910 5909 5908 5908 5908 5907 5906 5905 5904 5903 5902
5937 5938 5938 5937 5937 5936 5935 5934 5934 5933 5932 5930 5929 5928 5928 5927 5926 5925 5923 5922 5922 5920 5919 5918 5917 5917 5915 5915 5914 5913 5912 5911 5911 5910 5909 5907 5907 5907 5906 5904 5903 5902 5901
5938 5939 5938 5938 5938 5938 5936 5935 5934 5933 5932 5931 5930 5929 5928 5927 5927 5925 5923 5922 5921 5920 5920 5918 5917 5916 5915 5915 5914 5913 5912 5911 5911 5910 5909 5907 5906 5905 5904 5903 5902 5901 5900
5938 5938 5938 5938 5938 5938 5936 5934 5934 5933 5933 5932 5930 5929 5928 5927 5926 5925 5924 5922 5921 5920 5919 5918 5917 5916 5916 5914 5913 5912 5912 5911 5910 5910 5909 5907 5905 5903 5902 5901 5900 5899 5898
5937 5937 5937 5937 5937 5936 5935 5934 5933 5932 5931 5931 5929 5928 5927 5925 5924 5924 5923 5922 5921 5919 5918 5917 5915 5916 5915 5914 5912 5912 5912 5912 5910 5909 5908 5906 5904 5902 5900 5900 5898 5897 5895
5933 5935 5935 5934 5934 5934 5933 5932 5931 5930 5929 5929 5928 5927 5926 5924 5923 5922 5921 5920 5920 5918 5918 5917 5916 5915 5914 5913 5912 5911 5910 5909 5909 5907 5906 5905 5903 5901 5899 5898 5896 5895 5894
5931 5932 5931 5931 5931 5932 5931 5930 5928 5927 5927 5926 5926 5924 5924 5923 5922 5921 5920 5920 5918 5918 5917 5916 5915 5914 5913 5913 5912 5909 5908 5907 5906 5905 5903 5903 5901 5899 5897 5896 5894 5893 5892
5928 5929 5928 5928 5928 5928 5927 5926 5926 5924 5924 5924 5923 5922 5922 5922 5920 5919 5919 5917 5916 5915 5914 5913 5913 5912 5912 5911 5910 5908 5906 5905 5904 5903 5901 5900 5899 5897 5894 5893 5891 5890 5888
5926 5926 5926 5925 5925 5924 5923 5923 5923 5922 5921 5921 5921 5919 5919 5919 5918 5917 5916 5915 5915 5914 5913 5913 5912 5910 5909 5908 5907 5906 5905 5902 5901 5899 5898 5897 5895 5894 5892 5890 5889 5887 5885
5923 5922 5922 5921 5921 5919 5919 5919 5918 5918 5917 5916 5916 5915 5915 5915 5914 5914 5913 5913 5912 5912 5911 5910 5909 5907 5907 5906 5905 5903 5902 5900 5898 5896 5895 5894 5892 5891 5889 5887 5885 5884 5882
5918 5918 5917 5916 5916 5915 5914 5913 5913 5914 5913 5911 5912 5912 5911 5912 5912 5911 5910 5909 5909 5908 5906 5906 5906 5905 5904 5903 5902 5901 5899 5897 5895 5893 5891 5890 5889 5887 5885 5883 5882 5880 5878
5914 5914 5913 5912 5911 5911 5910 5909 5909 5908 5907 5906 5907 5908 5907 5907 5908 5908 5907 5906 5905 5905 5903 5902 5901 5901 5901 5901 5900 5898 5896 5895 5893 5891 5889 5886 5885 5884 5882 5880 5878 5877 5875
5909 5909 5909 5908 5907 5906 5906 5906 5905 5903 5900 5900 5901 5902 5903 5903 5903 5903 5903 5902 5902 5902 5901 5899 5897 5896 5897 5897 5896 5895 5893 5892 5890 5888 5885 5883 5881 5880 5879 5877 5875 5873 5872
5904 5904 5905 5904 5902 5901 5901 5900 5899 5897 5895 5895 5895 5896 5897 5897 5897 5897 5897 5897 5897 5898 5898 5896 5893 5892 5891 5891 5891 5889 5889 5888 5887 5884 5881 5879 5877 5876 5874 5873 5871 5869 5868
5899 5898 5897 5897 5895 5894 5894 5893 5892 5891 5889 5889 5889 5889 5888 5888 5888 5889 5890 5891 5891 5891 5893 5892 5891 5889 5887 5886 5886 5885 5884 5883 5882 5880 5879 5877 5874 5871 5869 5868 5866 5865 5863
5892 5891 5891 5890 5888 5887 5884 5883 5882 5882 5881 5879 5880 5881 5882 5882 5881 5882 5882 5884 5884 5885 5886 5886 5885 5885 5884 5882 5881 5880 5878 5878 5876 5876 5874 5872 5870 5868 5865 5863 5862 5860 5859
5883 5884 5884 5883 5881 5878 5875 5874 5873 5872 5874 5879 5877 5878 5881 5881 5878 5878 5878 5876 5877 5878 5879 5879 5879 5879 5879 5878 5876 5875 5873 5872 5870 5870 5869 5867 5865 5863 5861 5859 5857 5855 5853
5876 5876 5876 5875 5873 5871 5868 5868 5867 5864 5865 5872 5873 5872 5874 5875 5875 5874 5874 5870 5869 5872 5873 5874 5874 5873 5872 5873 5871 5869 5868 5868 5867 5865 5864 5863 5860 5858 5857 5855 5852 5851 5849
5869 5868 5867 5866 5864 5862 5858 5857 5857 5856 5856 5861 5864 5867 5866 5867 5865 5867 5868 5866 5864 5865 5866 5867 5868 5868 5867 5866 5865 5864 5863 5862 5861 5861 5859 5858 5856 5853 5853 5851 5849 5847 5844
5860 5858 5857 5856 5855 5852 5850 5848 5849 5849 5847 5847 5852 5855 5856 5855 5853 5853 5858 5859 5859 5858 5858 5859 5861 5861 5861 5861 5860 5858 5858 5857 5856 5854 5853 5853 5853 5850 5847 5846 5843 5841 5839
5851 5851 5849 5847 5846 5844 5841 5838 5837 5839 5839 5838 5838 5841 5841 5840 5840 5841 5844 5848 5849 5849 5850 5852 5853 5853 5854 5854 5854 5853 5851 5851 5850 5848 5846 5845 5845 5845 5842 5839 5838 5835 5833
5840 5840 5839 5837 5836 5834 5832 5830 5829 5828 5828 5827 5827 5829 5829 5828 5825 5826 5831 5836 5839 5841 5841 5843 5844 5845 5845 5846 5845 5846 5846 5845 5845 5843 5841 5838 5837 5837 5836 5833 5832 5830 5827